AirNav   Air Wisconsin Up To $57,000 Bonus
 
 824 users online  

0TX6 Elm Creek Airpark
Seguin, Texas, USA

GOING TO SEGUIN?


FAA INFORMATION EFFECTIVE 22 APRIL 2021

Location

FAA Identifier: 0TX6
Lat/Long: 29-30-18.1500N 097-59-49.7250W
29-30.302500N 097-59.828750W
29.5050417,-97.9971458
(estimated)
Elevation: 550 ft. / 168 m (estimated)
Variation: 07E (1985)
From city: 4 miles SSW of SEGUIN, TX
Time zone: UTC -5 (UTC -6 during Standard Time)
Zip code: 78155

Airport Operations

Airport use: Private use. Permission required prior to landing
Activation date: 11/1989
Control tower: no
ARTCC: HOUSTON CENTER
FSS: SAN ANGELO FLIGHT SERVICE STATION
Attendance: UNATNDD
Wind indicator: yes
Segmented circle: no

Airport Communications

WX ASOS at BAZ (12 nm N): 119.325 (830-629-7979)

Nearby radio navigation aids

VOR radial/distance  VOR name  Freq  Var
RNDr088/15.1RANDOLPH VORTAC112.3005E
SATr101/25.6SAN ANTONIO VORTAC116.8008E
SSFr049/(27.6)STINSON VOR108.4009E

Airport Services

Runway Information

Runway 14/32

Dimensions: 1925 x 75 ft. / 587 x 23 m
Surface: turf
Runway edge markings: RY 14/32 OUTLINED WITH CONC DISKS.
RUNWAY 14  RUNWAY 32
Latitude: 29-30.445000N29-30.160000N
Longitude: 097-59.909167W097-59.748333W
Elevation: 550.0 ft.550.0 ft.
Traffic pattern: leftright
Displaced threshold: no50 ft.
Obstructions: 20 ft. pline, marked, 500 ft. from runwaytrees

Airport Ownership and Management from official FAA records

Ownership: Privately-owned
Owner: ELM CREEK HOMEOWNERS ASSN INC
100 TAILWIND DRIVE
SEGUIN, TX 78155-0791
Phone 830-303-3640
Manager: JACK MERRELL
100 TAILWIND DRIVE
SEGUIN, TX 78155-0791
Phone 830-303-3640

Airport Operational Statistics

Aircraft based on the field: 20
Single engine airplanes: 20
    

Additional Remarks

FOR CD CTC SAN ANTONIO APCH AT 210-805-5516.

Instrument Procedures

There are no published instrument procedures at 0TX6.

Some nearby airports with instrument procedures:

KBAZ - New Braunfels Regional Airport (12 nm N)
KRND - Randolph Air Force Base (15 nm W)
KHYI - San Marcos Regional Airport (24 nm N)
KSAT - San Antonio International Airport (25 nm W)
KSSF - Stinson Municipal Airport (27 nm W)
 
Loc | Ops | Rwys | IFR | FBO | Links
Com | Nav | Svcs | Stats | Notes
Area around 0TX6 (Elm Creek Airpark)
 
Road maps at: MapQuest Bing Google
 
Aerial photo
WARNING: Photo may not be current or correct
Aerial photo of 0TX6 (Elm Creek Airpark)
Do you have a better or more recent aerial photo of Elm Creek Airpark that you would like to share? If so, please send us your photo.

 
Sectional chart

 
Airport distance calculator
Flying to Elm Creek Airpark? Find the distance to fly.

From to 0TX6

Sunrise and sunset
Times for 11-May-2021
 Local
(UTC-5)
 Zulu
(UTC)
Morning civil twilight06:1711:17
Sunrise06:4311:43
Sunset20:1401:14
Evening civil twilight20:3901:39

Current date and time
Zulu (UTC)  12-May-2021 03:23:04
Local (UTC-5)  11-May-2021 22:23:04
 
METAR
KSEQ 
6nm NE 
120258Z AUTO 02010KT 10SM SCT011 OVC120 17/17 A3005 RMK AO2 LTG DSNT SE RAE36 SLP174 P0001 60014 T01730169 51034
KBAZ 
13nm N 
120251Z AUTO 02008KT 10SM FEW009 BKN110 18/17 A2999 RMK AO2 RAE16 SLP151 P0001 60018 T01780167 50013
KRND 
14nm W 
120256Z AUTO 02013KT 10SM FEW010 SCT110 18/17 A2997 RMK AO2 PRESFR SLP144 60015 T01760174 52023
TAF
KRND 
14nm W 
112245Z 1122/1222 05009KT 8000 -SHRA VCTS SCT030CB BKN045 OVC100 QNH2980INS TEMPO 1122/1205 VRB25G50KT 1600 TSRAGR BKN010CB OVC025 BECMG 1204/1205 03012KT 9999 VCSH OVC003 QNH2985INS BECMG 1213/1214 02015G25KT 9999 NSW SCT007 OVC015 QNH3003INS TX29/1122Z TN18/1211Z LAST NO AMDS AFT 1122 NEXT 1210
NOTAMs
Click for the latest NOTAMs
NOTAMs are issued by the DoD/FAA and will open in a separate window not controlled by AirNav.

 

 
 

Would you like to see your business listed on this page?

 If your business provides an interesting product or service to pilots, flight crews, aircraft, or users of the Elm Creek Airpark, you should consider listing it here.  To start the listing process, click on the button below
 
Add a business
 

Other Pages about Elm Creek Airpark

elmcreekap.org
 
Update a link
 
Copyright © AirNav, LLC. All rights reserved. Privacy Policy  Contact